Theta_e
315 315 315 316 316 316 316 316 316 317 316 316 315 315 315 316 315 304 298 304 308 318 319 304 305 304 299 296 295 294 287 282 285 291 293 299 298 305 308 305 311 328 327 332 343
314 314 314 314 314 315 315 315 316 316 316 316 315 314 314 315 306 301 310 315 319 321 306 297 296 298 292 293 293 290 284 287 292 294 293 297 297 300 302 303 304 322 334 341 341
314 314 314 314 314 315 314 314 315 315 316 316 314 314 313 312 297 293 315 318 320 321 304 299 299 296 289 289 291 288 285 291 293 295 296 297 298 302 299 299 304 309 329 337 337
315 315 315 315 315 315 314 314 314 314 314 314 314 313 313 304 289 310 326 321 322 315 304 299 295 290 287 288 290 285 291 294 294 296 294 295 300 300 301 301 306 307 316 335 334
316 316 316 316 316 316 316 315 314 314 314 313 314 313 305 296 296 305 318 326 318 313 303 297 293 289 286 288 290 287 290 292 294 295 296 296 296 297 300 303 307 306 319 332 332
316 316 316 316 316 316 315 315 314 313 312 313 314 312 302 292 304 309 320 318 314 308 302 297 293 292 289 289 290 292 293 294 293 292 293 293 296 298 301 304 305 305 321 330 331
316 316 315 315 315 315 315 314 313 312 312 313 315 310 301 297 308 309 312 311 314 308 301 299 296 294 291 290 294 293 290 292 292 292 291 294 291 294 301 303 302 303 314 321 322
315 316 316 316 315 315 315 315 313 313 312 313 315 307 296 307 310 307 306 306 315 309 303 303 298 292 290 293 294 289 287 283 292 293 294 294 288 296 299 300 300 302 305 314 315
315 315 315 314 315 315 314 314 313 313 313 313 309 303 295 312 308 310 307 304 309 310 308 306 298 292 292 288 286 285 283 284 288 293 293 293 289 296 299 300 300 302 303 305 309
316 315 314 313 314 314 313 313 312 313 314 312 310 298 301 303 309 311 308 306 302 303 300 298 291 288 286 285 280 283 283 286 287 291 291 289 290 294 297 298 300 299 301 302 305
315 314 314 313 313 313 311 303 303 302 306 297 299 299 305 311 314 306 308 305 302 297 290 292 287 285 288 289 290 289 288 288 291 294 291 290 290 293 296 296 296 307 298 300 302
314 315 313 312 313 312 309 299 301 303 297 304 303 304 306 309 304 307 307 300 297 292 292 290 287 292 294 293 291 290 288 288 292 294 291 291 291 293 294 294 296 298 304 300 301
313 313 313 313 312 306 303 301 306 303 294 300 304 303 304 308 304 306 304 302 297 292 291 288 291 296 294 293 291 289 288 288 290 293 291 289 288 290 294 295 296 296 298 300 301
312 312 313 312 303 300 299 306 308 306 290 297 301 304 307 307 303 311 306 302 297 294 293 291 295 295 293 292 292 287 293 293 291 288 283 288 281 286 290 292 295 296 295 298 299
312 312 312 312 304 300 304 306 306 301 282 303 302 311 308 303 301 304 308 303 296 294 293 291 292 292 291 292 294 291 294 292 291 286 283 284 282 285 289 291 293 294 297 297 298
311 312 311 307 304 303 305 306 302 291 284 301 303 301 300 301 301 302 302 305 303 294 295 294 297 295 294 296 295 296 289 287 284 283 279 283 282 283 287 290 293 296 300 301 300
311 310 309 308 297 303 303 301 290 286 303 298 299 300 298 297 298 298 296 294 292 288 289 292 292 295 298 292 293 289 284 278 278 277 278 284 283 285 291 298 298 298 299 299 300
309 308 306 306 306 306 301 295 285 297 297 304 302 299 295 296 296 297 295 291 295 294 289 287 285 293 297 295 292 290 285 279 276 276 278 286 281 287 299 301 300 300 299 300 299
307 298 297 301 305 302 299 288 291 298 300 298 299 296 295 301 298 298 298 297 298 295 289 288 289 299 301 301 297 290 287 288 281 281 279 282 286 292 299 299 300 298 298 298 299
302 294 299 305 306 302 295 292 297 305 303 299 293 295 290 293 296 296 296 299 301 303 297 292 288 297 299 299 299 296 295 286 284 279 277 281 283 284 293 295 297 297 297 296 297
293 293 305 306 304 298 290 293 301 307 304 298 295 293 293 292 295 293 295 299 303 302 301 295 291 293 297 292 290 292 290 291 288 285 279 279 282 292 294 296 296 298 299 298 296
295 289 305 308 295 295 292 299 302 303 303 301 298 296 293 292 291 293 293 294 299 302 297 297 294 289 292 297 298 293 289 290 283 282 283 282 286 300 300 300 300 299 302 302 301
294 289 302 305 290 292 297 300 303 300 299 297 295 296 295 290 287 292 294 297 299 297 293 294 289 283 285 287 292 290 291 291 289 286 282 280 284 299 301 301 303 302 304 304 305
293 289 297 298 295 293 294 294 295 300 298 298 296 296 292 288 289 288 291 295 298 298 303 296 287 285 282 284 287 285 289 289 286 281 282 284 288 293 297 298 300 300 304 304 305
289 290 292 290 293 292 292 294 294 293 295 295 292 293 290 284 285 286 289 291 295 298 294 290 284 285 285 288 289 288 288 287 286 286 283 284 287 291 295 297 297 298 301 302 303
290 290 294 291 295 294 293 293 294 293 293 292 291 292 290 286 286 285 288 287 287 293 289 289 282 283 283 288 287 285 287 288 288 288 287 288 287 294 297 296 296 297 298 298 296
296 299 294 291 294 292 292 294 295 294 294 295 293 290 288 289 291 290 291 291 290 289 287 285 283 281 280 285 285 280 284 286 286 289 288 284 289 293 293 293 293 292 294 294 294
Wind_Speed
14 14 14 15 14 15 15 14 13 13 14 13 13 13 13 14 15 1 9 14 11 12 11 3 4 5 4 3 3 4 1 3 4 8 6 5 3 4 7 2 10 3 0 1 18
15 14 13 13 13 13 14 15 14 14 13 14 14 12 12 13 8 13 15 15 15 15 7 7 5 6 3 4 2 4 4 7 6 4 3 4 3 5 5 9 6 5 6 13 15
16 15 15 15 14 12 12 12 13 13 14 15 14 12 11 9 4 9 7 17 16 12 3 4 6 5 3 3 5 4 5 5 5 6 7 7 3 4 2 9 5 7 5 9 12
16 16 16 16 16 15 14 14 13 13 12 12 13 10 10 3 6 4 9 16 16 8 8 7 4 6 5 6 4 1 6 9 6 8 5 6 10 15 8 11 14 8 8 14 13
16 16 16 16 16 16 16 15 14 14 13 13 10 6 3 3 13 5 6 17 12 6 7 7 6 6 6 4 6 4 7 6 7 10 13 7 19 10 23 12 16 14 8 17 16
16 17 18 18 18 17 16 14 13 14 15 12 9 3 2 7 4 4 5 15 10 7 6 7 8 6 4 4 6 6 12 18 10 12 6 6 12 5 26 8 13 10 10 17 21
17 18 19 20 20 20 18 19 18 18 15 12 10 6 7 18 1 6 2 6 11 7 7 4 5 5 4 4 8 6 7 7 8 11 9 9 12 23 21 9 15 12 8 12 9
18 17 17 18 19 19 18 18 22 20 16 11 9 6 11 5 4 6 6 3 10 4 4 7 6 1 4 3 5 3 2 2 10 7 8 13 14 18 10 9 13 12 9 12 10
18 16 18 21 19 19 19 21 21 14 8 9 6 5 13 5 4 9 7 7 8 1 3 6 6 5 2 3 5 2 4 6 9 10 4 12 9 22 12 10 12 7 8 9 7
17 17 17 21 19 17 16 17 12 4 7 7 2 3 7 5 4 5 7 12 6 8 4 5 3 3 3 5 5 5 5 5 5 3 5 5 11 11 9 8 15 12 11 9 11
20 19 19 20 19 16 7 4 3 2 6 11 9 6 2 4 4 5 7 12 7 4 6 5 4 7 10 10 7 5 5 6 6 5 3 6 8 12 10 5 7 18 8 10 10
20 18 22 21 21 19 5 4 7 1 8 22 15 14 14 6 4 2 14 8 7 7 4 3 7 11 8 6 6 7 7 8 8 2 4 5 6 6 4 6 7 12 16 11 6
20 22 20 21 25 2 4 8 2 2 4 5 10 9 6 8 8 5 12 7 5 7 7 7 7 6 6 5 5 6 6 6 8 5 0 2 7 5 3 4 6 8 10 7 10
22 22 18 20 3 2 5 5 7 4 3 4 5 7 6 6 4 7 10 7 3 10 7 6 7 8 5 5 7 5 10 11 6 3 4 2 4 6 4 8 5 6 7 9 10
23 23 17 7 10 4 3 5 5 2 4 1 4 6 5 8 3 5 6 4 8 6 6 7 4 4 4 7 7 10 2 6 4 4 3 3 4 8 3 5 4 4 2 5 8
25 23 17 8 4 10 5 7 1 2 6 4 4 5 5 3 2 3 4 4 5 5 3 7 3 3 6 5 7 4 3 6 5 5 2 6 6 6 3 3 8 5 5 8 10
27 28 19 7 7 3 4 3 3 4 3 4 2 5 4 5 3 2 5 6 6 4 4 3 5 4 6 4 1 3 6 4 4 3 6 0 2 9 6 6 4 8 9 7 7
32 32 5 6 10 11 2 3 4 5 2 10 10 1 5 5 1 3 4 5 1 3 3 4 5 4 3 7 7 2 7 7 5 4 5 1 4 6 4 4 4 5 6 6 6
27 4 4 4 8 4 4 2 5 1 3 7 7 2 2 1 6 5 3 3 3 5 5 4 4 2 2 1 5 3 3 3 8 3 2 3 6 7 3 4 6 7 6 7 6
9 5 5 3 10 3 4 5 5 2 2 5 5 6 2 4 3 4 2 3 3 4 2 3 3 1 3 2 4 2 5 3 3 4 3 4 4 6 3 2 6 8 9 9 8
4 5 3 6 2 4 3 6 5 3 4 3 3 2 2 3 3 2 2 2 2 4 5 2 2 4 5 3 1 6 2 5 4 4 6 2 6 4 4 5 1 5 6 5 6
3 4 1 3 3 1 3 4 3 5 2 4 2 1 2 6 4 4 3 3 8 2 3 5 4 3 4 3 1 2 2 4 5 4 1 2 8 2 3 4 5 3 5 4 4
6 4 5 4 2 3 4 4 3 1 4 3 2 2 3 4 2 2 3 3 6 3 3 3 0 1 3 4 5 5 3 4 4 3 5 5 5 1 3 2 3 4 2 4 2
3 5 4 3 1 2 3 3 2 3 2 4 3 3 4 2 5 2 2 4 6 4 8 3 3 4 6 2 2 1 3 2 5 3 4 5 7 6 7 7 7 7 6 2 6
1 3 1 4 2 4 2 3 3 1 3 4 3 2 4 3 2 2 2 5 5 8 4 4 2 3 1 2 2 4 4 5 7 5 7 3 10 10 14 11 8 5 4 4 2
2 2 4 4 4 3 1 4 5 3 2 1 5 2 3 4 4 5 4 2 2 5 4 4 2 2 3 6 4 4 7 8 8 7 10 14 20 16 16 7 7 7 5 4 5
3 1 1 4 4 2 2 4 3 6 6 3 8 4 2 1 3 3 4 2 3 5 2 2 5 2 3 3 6 7 6 8 4 4 5 8 9 9 5 3 2 2 6 7 5
Wind_Direction
336 337 337 335 333 332 332 332 332 331 334 335 322 312 313 314 313 291 235 219 185 222 169 155 88 132 90 136 142 116 149 223 226 168 257 301 356 337 318 318 309 339 111 111 141
332 330 329 327 327 326 326 327 328 327 325 328 330 313 312 317 306 263 240 217 208 166 144 153 122 128 99 157 162 150 177 227 205 211 261 264 283 337 333 327 299 308 40 127 145
329 328 326 325 323 321 318 317 318 321 325 328 329 319 316 330 296 246 264 203 194 182 136 141 120 101 139 137 198 190 207 212 264 278 291 283 282 262 305 289 217 286 135 171 165
326 325 324 324 322 320 319 319 316 315 317 319 318 318 312 313 288 71 107 167 173 148 131 138 116 127 151 201 183 259 208 213 225 270 277 255 277 262 233 244 266 242 258 188 182
324 323 321 320 318 317 318 318 315 312 310 310 305 304 341 258 250 273 316 170 168 142 161 145 137 132 170 213 135 208 239 247 246 244 249 254 265 287 278 272 281 286 225 190 191
319 319 320 320 319 318 317 312 303 302 303 298 282 222 223 256 224 2 128 136 158 145 164 145 170 170 180 207 182 219 235 245 237 241 217 239 275 224 259 255 270 276 211 201 196
321 322 324 322 321 319 316 315 309 306 300 288 269 197 235 238 144 3 129 166 167 165 155 187 124 156 162 216 232 244 256 275 237 226 228 161 275 246 264 250 261 270 222 222 226
323 321 321 319 319 316 313 308 308 298 286 267 250 196 249 243 225 275 159 118 160 147 124 153 120 20 224 283 344 258 126 290 266 187 236 160 246 252 237 225 250 235 235 225 210
323 321 322 321 320 318 312 312 307 299 274 205 167 204 261 285 216 211 167 157 137 151 317 95 122 216 294 73 357 306 221 219 304 198 128 179 233 258 242 208 234 249 241 205 244
320 319 318 323 320 317 316 307 310 290 125 152 251 240 248 229 196 178 165 144 137 121 105 130 193 185 50 92 233 242 241 243 235 158 198 183 259 280 281 216 218 197 242 228 206
322 320 319 319 317 313 322 345 251 214 223 197 192 251 267 322 190 165 146 147 124 135 158 196 150 198 212 198 217 287 260 268 260 191 250 194 241 263 259 185 250 230 199 258 229
319 316 321 321 315 311 257 223 228 152 287 222 230 247 281 313 289 192 138 140 158 192 160 125 227 223 217 197 203 245 272 273 272 303 137 300 268 257 252 242 213 209 244 215 231
318 320 319 316 316 23 224 230 214 35 263 258 195 223 228 180 211 222 170 142 158 164 178 187 226 141 170 224 202 225 221 251 243 337 282 358 327 329 317 342 267 253 240 214 206
319 317 317 321 3 322 245 258 233 190 303 222 218 254 180 205 258 184 181 141 177 189 172 219 239 230 233 234 174 245 214 236 242 90 244 94 250 296 291 301 281 311 259 252 208
316 315 314 314 293 253 228 61 113 125 328 147 169 154 152 167 173 210 159 113 173 184 130 233 200 172 171 217 160 229 167 236 195 163 66 314 86 265 303 275 281 310 317 287 273
318 312 314 298 240 235 299 338 77 17 251 336 127 173 134 243 282 106 139 120 155 175 203 219 238 215 223 238 199 273 116 49 50 98 99 241 149 283 247 319 303 305 330 321 314
317 310 299 248 228 144 202 146 25 213 47 313 257 172 199 172 196 114 163 163 154 152 249 289 250 238 217 269 261 97 62 343 355 20 215 81 67 236 306 321 294 307 320 329 324
320 308 253 203 216 266 316 66 242 275 144 182 261 279 163 146 182 131 120 158 79 131 140 193 317 193 195 181 194 210 152 158 210 195 255 264 229 249 250 280 342 326 314 338 12
320 313 268 242 175 146 101 151 236 260 353 349 297 28 30 95 122 106 50 93 69 40 183 160 265 338 45 304 140 180 205 174 106 21 70 266 299 324 38 33 357 2 20 19 31
321 323 269 99 157 111 91 238 247 249 132 35 345 15 125 360 62 81 63 314 313 48 100 315 220 208 324 350 46 127 153 77 5 149 228 294 282 240 255 197 3 2 354 349 350
359 338 304 122 173 64 191 238 261 198 131 108 180 255 51 37 65 58 76 96 18 315 13 28 86 302 27 28 40 356 32 65 109 128 162 214 258 228 229 148 102 341 352 17 19
353 329 200 125 59 160 211 218 307 298 139 105 67 44 63 21 43 56 108 18 339 101 101 333 108 234 299 309 99 55 89 114 126 235 223 169 251 164 155 153 170 227 302 326 14
322 268 305 119 180 257 276 268 229 1 328 117 136 47 27 83 57 58 97 5 358 78 134 189 289 53 10 6 15 53 32 100 95 71 207 155 255 311 283 242 248 271 273 317 359
319 326 308 42 44 324 335 263 222 68 103 78 111 72 84 71 24 134 80 1 1 31 48 101 105 155 186 123 160 174 181 116 116 134 251 225 292 299 291 278 270 270 306 243 279
191 261 216 323 6 335 293 290 195 133 68 54 55 96 138 120 71 97 56 355 3 355 49 83 119 24 353 303 289 259 247 228 203 204 211 201 236 256 257 256 252 257 259 269 333
277 346 337 284 295 299 329 270 210 112 58 24 125 137 88 136 160 195 137 218 212 7 46 9 147 76 311 288 295 269 257 247 241 234 250 258 267 251 267 255 265 283 251 171 129
309 263 120 293 335 320 334 284 262 125 32 79 140 118 106 238 169 193 190 183 179 144 120 119 133 105 252 354 343 303 241 240 209 204 246 252 254 264 273 312 322 87 130 125 97